Погода в Бакине

Россия / Владимирская область     56°20′03″N   38°58′44″E
темп.,
°C
ветер,
м/с
пор.,
м/с
влажн.,
%
обл.,
%
осадки,
мм/ч
давл.,
гПа
погр.,
м
9 марта, вт
вт900:00−15ссз379720 0.0 1009172
03:00−17ссз379849 0.0 1012143
06:00−18ссз369798 0.1 1013186
09:00−17ссз369498 0.1 1015274
12:00−14ссз3586100 0.0 1016548
15:00−13ссз4684100 0.1 1017705
18:00−17ссз3892100 0.0 1019395
21:00−20ссз3995100 0.1 1021335
10 марта, ср
ср1000:00−23ссз379861 0.0 1023192
03:00−25ссз369875 0.0 1024163
06:00−26ссз379747 0.0 1026166
09:00−24с379225 0.0 1027266
12:00−19с368417 0.0 1028475
15:00−16с357911 0.0 1028590
18:00−19с22910 0.0 102920
21:00−22ссз23960 0.0 103035
11 марта, чт
чт1100:00−23ссз22930 0.0 103120
03:00−23сз22910 0.0 103223
06:00−23зсз23950 0.0 103229
09:00−19сз24920 0.0 1033185
12:00−12сз238028 0.0 1032434
15:00−10зсз237537 0.0 1032663
18:00−13з128985 0.0 103121
21:00−17зюз229458 0.0 103120
12 марта, пт
пт1200:00−18юз23920 0.0 103138
03:00−20ююз36910 0.0 1031102
06:00−21ююз37890 0.0 1031155
09:00−18ююз49780 0.0 1030268
12:00−11ю510750 0.0 1029463
15:00−8ю511750 0.0 1027685
18:00−11ю513810 0.0 1025543
21:00−13ю514841 0.0 1025514
13 марта, сб
сб1300:00−12ю61580100 0.0 1024642
03:00−11ю61678100 0.0 1022664
06:00−11ю61481100 0.0 1020749
09:00−9ю71490100 0.1 1019835
12:00−6ю71289100 0.5 1018906
15:00−5ю61291100 1.0 1017877
18:00−5ю51294100 0.5 1015665
21:00−3ююз51194100 0.9 1015482